Location: *
(49.5667°N, 1.3667°W)
Time: 12:20:27
(UTC+00:00)

Cosmos 407 Rocket - Pass Details

Date: 20 September 2019
Orbit: 744 x 786 km, 74.0° (Epoch: 15 October)

Event Time Altitude Azimuth Distance (km) Brightness Sun altitude
Rises 18:34:44 0° 340° (NNW) 3,208 7.1 -5.0°
Reaches altitude 10° 18:37:15 10° 348° (NNW) 2,276 6.2 -5.4°
Maximum altitude 18:42:06 40° 58° (ENE) 1,094 4.0 -6.2°
Drops below altitude 10° 18:46:54 10° 128° (SE) 2,258 5.4 -7.0°
Enters shadow 18:48:25 - 133° (SE) 2,816 5.9 -7.2°
